Weather History for North Las Vegas, NV

Change the Weather History Date:

Sunday, March 17, 2013

  Actual Average Record
Temperature  
Mean Temperature 72 °F -  
Max Temperature 81 °F 70 °F 90 °F (2007)
Min Temperature 64 °F 49 °F 27 °F (1955)
Cooling Degree Days 8    
Growing Degree Days 22 (Base 50)    
Moisture  
Dew Point 11 °F    
Average Humidity 11    
Maximum Humidity 15    
Minimum Humidity 5    
Precipitation  
Precipitation 0.00 in - - ()
Sea Level Pressure  
Sea Level Pressure 29.84 in    
Wind  
Wind Speed 14 mph (NNW)    
Max Wind Speed 22 mph    
Max Gust Speed 33 mph    
Visibility 10 miles    
Events      
Averages and records for this station are not official NWS values.
T = Trace of Precipitation, MM = Missing Value Source: NWS Daily Summary

Daily Weather History Graph

Daily Weather History Graph

Search for Another Location

Airport:

Trip Planner

Search our weather history database for the weather conditions in past years. The results will help you decide how hot, cold, wet, or windy it might be!

Date:

Astronomy

Mar. 17, 2013 Rise Set
Actual Time 6:48 AM PDT 6:50 PM PDT
Civil Twilight 6:22 AM PDT 7:15 PM PDT
Nautical Twilight 5:52 AM PDT 7:45 PM PDT
Astronomical Twilight 5:22 AM PDT 8:16 PM PDT
Moon 10:13 AM PDT (3/17) No Moon Set
Length of Visible Light 12h 53m
Length of Day
12h 02m
Waxing Crescent, 32% of the Moon is Illuminated
Mar 17
Waxing Crescent
Mar 19
First Quarter
Mar 27
Full
Apr 2
Last Quarter
Apr 10
New

Hourly Weather History & Observations

Time (PDT) Temp. Dew Point Humidity Pressure Visibility Wind Dir Wind Speed Gust Speed Precip Events Conditions
12:53 AM 69.1 °F 15.1 °F 13% 29.74 in 10.0 mi North 10.4 mph - N/A   Clear
1:53 AM 71.1 °F 10.9 °F 10% 29.75 in 10.0 mi NNW 19.6 mph 31.1 mph N/A   Clear
2:53 AM 69.1 °F 15.1 °F 13% 29.78 in 10.0 mi NW 16.1 mph 25.3 mph N/A   Clear
3:53 AM 69.1 °F 15.1 °F 13% 29.78 in 10.0 mi NNW 20.7 mph 33.4 mph N/A   Clear
4:53 AM 66.9 °F 16.0 °F 14% 29.80 in 10.0 mi NNW 16.1 mph 28.8 mph N/A   Clear
5:53 AM 66.9 °F 16.0 °F 14% 29.83 in 10.0 mi North 16.1 mph 23.0 mph N/A   Clear
6:53 AM 64.9 °F 16.0 °F 15% 29.88 in 10.0 mi North 12.7 mph 21.9 mph N/A   Clear
7:53 AM 64.9 °F 16.0 °F 15% 29.91 in 10.0 mi North 18.4 mph - N/A   Clear
8:53 AM 68.0 °F 12.9 °F 12% 29.91 in 10.0 mi NNW 19.6 mph 25.3 mph N/A   Clear
9:53 AM 70.0 °F 8.1 °F 9% 29.91 in 10.0 mi North 21.9 mph 29.9 mph N/A   Clear
10:53 AM 72.0 °F 3.0 °F 7% 29.91 in 10.0 mi North 17.3 mph 26.5 mph N/A   Clear
11:53 AM 75.0 °F 5.0 °F 7% 29.90 in 10.0 mi North 16.1 mph 19.6 mph N/A   Clear
12:53 PM 75.2 °F 3.2 °F 6% 29.89 in 10.0 mi North 13.8 mph - N/A   Clear
1:53 PM 78.1 °F 3.0 °F 5% 29.85 in 10.0 mi North 9.2 mph 24.2 mph N/A   Clear
2:53 PM 80.1 °F - N/A% 29.82 in 10.0 mi North 20.7 mph 27.6 mph N/A   Clear
3:53 PM 81.0 °F - N/A% 29.81 in 10.0 mi North 16.1 mph 26.5 mph N/A   Clear
4:53 PM 81.0 °F - N/A% 29.80 in 10.0 mi NNW 10.4 mph 19.6 mph N/A   Clear
5:53 PM 79.0 °F - N/A% 29.81 in 10.0 mi North 9.2 mph - N/A   Clear
6:53 PM 77.0 °F - N/A% 29.82 in 10.0 mi WNW 4.6 mph - N/A   Clear
7:53 PM 73.9 °F - N/A% 29.82 in 10.0 mi WNW 4.6 mph - N/A   Clear
8:53 PM 70.0 °F - N/A% 29.84 in 10.0 mi WNW 8.1 mph - N/A   Clear
9:53 PM 66.0 °F - N/A% 29.86 in 10.0 mi North 3.5 mph - N/A   Clear
10:53 PM 64.9 °F - N/A% 29.88 in 10.0 mi WNW 6.9 mph - N/A   Clear
11:53 PM 66.9 °F - N/A% 29.88 in 10.0 mi North 11.5 mph - N/A   Clear